Weather History for KSTC - July, 2013

Change the Weather History Date:

Monday, July 29, 2013

  Actual Average Record
Temperature  
Mean Temperature 61 °F 70 °F  
Max Temperature 76 °F 82 °F 99 °F (1935)
Min Temperature 45 °F 58 °F 43 °F (1992)
Degree Days  
Heating Degree Days 4 1  
Month to date heating degree days 26 15  
Since 1 June heating degree days 113 93  
Since 1 July heating degree days 26 15  
Cooling Degree Days 0 6  
Month to date cooling degree days 215 173  
Year to date cooling degree days 325 293  
Since 1 June cooling degree days 314 268  
Growing Degree Days 10 (Base 50)    
Moisture  
Dew Point 52 °F    
Average Humidity 71    
Maximum Humidity 100    
Minimum Humidity 41    
Precipitation  
Precipitation T in 0.11 in 1.81 in (1913)
Month to date precipitation 1.36 3.10  
Year to date precipitation 19.41 15.58  
Snow  
Snow 0.00 in 0.00 in 0.00 in ()
Month to date snowfall 0.0 0.0  
Since 1 June snowfall 0.0 0.0  
Since 1 July snowfall 0.0 0.0  
Snow Depth 0.00 in    
Sea Level Pressure  
Sea Level Pressure 30.11 in    
Wind  
Wind Speed 5 mph (South)    
Max Wind Speed 15 mph    
Max Gust Speed 18 mph    
Visibility 10 miles    
Events Rain    
T = Trace of Precipitation, MM = Missing Value Source: NWS Daily Summary

Daily Weather History Graph

Daily Weather History Graph

Search for Another Location

Airport or City:

Trip Planner

Search our weather history database for the weather conditions in past years. The results will help you decide how hot, cold, wet, or windy it might be!

Date:

Astronomy

Jul. 29, 2013 Rise Set
Actual Time 5:56 AM CDT 8:47 PM CDT
Civil Twilight 5:22 AM CDT 9:22 PM CDT
Nautical Twilight 4:38 AM CDT 10:05 PM CDT
Astronomical Twilight 3:46 AM CDT 10:57 PM CDT
Moon No Moon Rise 2:05 PM CDT (7/29)
Length of Visible Light 15h 59m
Length of Day
14h 50m
Waning Gibbous, 50% of the Moon is Illuminated
Jul 29
Waning Gibbous
Jul 29
Last Quarter
Aug 6
New
Aug 14
First Quarter
Aug 20
Full

Hourly Weather History & Observations

Time (CDT) Temp. Dew Point Humidity Pressure Visibility Wind Dir Wind Speed Gust Speed Precip Events Conditions
12:53 AM 51.1 °F 50.0 °F 96% 30.10 in 10.0 mi Calm Calm - N/A   Clear
1:53 AM 48.9 °F 48.0 °F 97% 30.10 in 9.0 mi Calm Calm - N/A   Clear
2:53 AM 48.9 °F 48.0 °F 97% 30.10 in 10.0 mi Calm Calm - N/A   Clear
3:53 AM 46.9 °F 46.0 °F 97% 30.11 in 7.0 mi Calm Calm - N/A   Clear
4:53 AM 46.9 °F 46.0 °F 97% 30.11 in 10.0 mi Calm Calm - N/A   Clear
5:53 AM 46.0 °F 45.0 °F 96% 30.12 in 9.0 mi Calm Calm - N/A   Clear
6:53 AM 48.9 °F 46.9 °F 93% 30.12 in 10.0 mi Calm Calm - N/A   Clear
7:53 AM 57.0 °F 53.1 °F 87% 30.13 in 10.0 mi Calm Calm - N/A   Clear
8:53 AM 63.0 °F 54.0 °F 72% 30.15 in 10.0 mi SSE 3.5 mph - N/A   Clear
9:53 AM 66.9 °F 54.0 °F 63% 30.15 in 10.0 mi SSE 6.9 mph - N/A   Clear
10:53 AM 70.0 °F 52.0 °F 53% 30.14 in 10.0 mi South 9.2 mph - N/A   Scattered Clouds
11:53 AM 72.0 °F 50.0 °F 46% 30.13 in 10.0 mi South 12.7 mph - N/A   Partly Cloudy
12:53 PM 73.9 °F 51.1 °F 45% 30.13 in 10.0 mi South 11.5 mph 17.3 mph N/A   Partly Cloudy
1:53 PM 73.9 °F 50.0 °F 43% 30.12 in 10.0 mi South 10.4 mph 17.3 mph N/A   Scattered Clouds
2:53 PM 73.9 °F 48.0 °F 40% 30.10 in 10.0 mi SSE 9.2 mph - N/A   Partly Cloudy
3:53 PM 75.0 °F 50.0 °F 41% 30.11 in 10.0 mi SSE 9.2 mph - N/A   Scattered Clouds
4:53 PM 73.9 °F 52.0 °F 46% 30.11 in 10.0 mi SSE 6.9 mph - N/A   Overcast
5:53 PM 73.0 °F 53.1 °F 49% 30.10 in 10.0 mi SSE 8.1 mph - N/A   Partly Cloudy
6:53 PM 72.0 °F 53.1 °F 51% 30.11 in 10.0 mi South 4.6 mph - N/A   Clear
7:53 PM 69.1 °F 55.9 °F 63% 30.10 in 10.0 mi Calm Calm - 0.00 in   Mostly Cloudy
8:53 PM 64.9 °F 59.0 °F 81% 30.09 in 10.0 mi Calm Calm - 0.00 in Rain Light Rain
9:53 PM 64.0 °F 60.1 °F 87% 30.10 in 10.0 mi Calm Calm - 0.00 in   Overcast
10:53 PM 64.0 °F 61.0 °F 90% 30.12 in 10.0 mi WSW 3.5 mph - 0.00 in Rain Light Rain
11:53 PM 63.0 °F 55.9 °F 78% 30.11 in 10.0 mi SSW 8.1 mph - 0.00 in   Overcast